| time (UTC) | temp C | wind direction | speed KPH | gust KPH | rain 1hr cm | rain 24hr cm | rain mn cm | humidity % | barometer mb |
| 20260505235338 | 16 | 289 | 3.2 | 8.0 | 0.05 | 1.09 | 1.09 | 94 | 1006.1 |
| 20260505234838 | 16 | 290 | 3.2 | 9.7 | 0.03 | 1.07 | 1.07 | 94 | 1006.0 |
| 20260505234547 | 15 | 273 | 1.6 | 9.7 | 0.03 | 1.07 | 1.07 | 94 | 1005.6 |
| 20260505234309 | 16 | 273 | 3.2 | 9.7 | 0.03 | 1.07 | 1.07 | 94 | 1006.2 |
| 20260505233808 | 16 | 273 | 3.2 | 9.7 | 0.03 | 1.07 | 1.07 | 94 | 1006.3 |
| 20260505233245 | 16 | 290 | 3.2 | 9.7 | 0.03 | 1.07 | 1.07 | 94 | 1006.3 |
| 20260505233025 | 15 | 288 | 1.6 | 6.4 | 0.03 | 1.07 | 1.07 | 94 | 1005.8 |
| 20260505232732 | 16 | 286 | 3.2 | 11.3 | 0.00 | 1.04 | 1.04 | 94 | 1006.4 |
| 20260505232458 | 16 | 286 | 3.2 | 12.9 | 0.00 | 1.04 | 1.04 | 94 | 1006.4 |
| 20260505231734 | 16 | 287 | 3.2 | 6.4 | 0.00 | 1.04 | 1.04 | 94 | 1006.4 |
| 20260505231555 | 16 | 287 | 1.6 | 6.4 | 0.00 | 1.04 | 1.04 | 94 | 1005.8 |
| 20260505231435 | 16 | 288 | 3.2 | 11.3 | 0.03 | 1.04 | 1.04 | 94 | 1006.3 |
| 20260505230702 | 16 | 288 | 4.8 | 11.3 | 0.03 | 1.04 | 1.04 | 94 | 1006.4 |
| 20260505230200 | 16 | 290 | 6.4 | 19.3 | 0.03 | 1.04 | 1.04 | 94 | 1006.4 |
| 20260505230109 | 16 | 288 | 4.8 | 19.3 | 0.03 | 1.04 | 1.04 | 94 | 1005.9 |
| 20260505225859 | 16 | 288 | 4.8 | 19.3 | 0.03 | 1.04 | 1.04 | 94 | 1006.5 |
| 20260505225339 | 16 | 290 | 6.4 | 14.5 | 0.03 | 1.04 | 1.04 | 94 | 1006.6 |
| 20260505224543 | 16 | 290 | 4.8 | 14.5 | 0.03 | 1.04 | 1.04 | 94 | 1006.7 |
| 20260505224526 | 16 | 290 | 6.4 | 14.5 | 0.03 | 1.04 | 1.04 | 94 | 1006.1 |
| 20260505224015 | 16 | 290 | 3.2 | 12.9 | 0.05 | 1.04 | 1.04 | 94 | 1006.7 |
| 20260505223451 | 16 | 289 | 3.2 | 14.5 | 0.05 | 1.04 | 1.04 | 94 | 1006.8 |
| 20260505223100 | 16 | 290 | 1.6 | 14.5 | 0.08 | 1.04 | 1.04 | 94 | 1006.3 |
| 20260505222924 | 16 | 289 | 4.8 | 14.5 | 0.08 | 1.04 | 1.04 | 94 | 1006.8 |
| 20260505222419 | 16 | 289 | 6.4 | 17.7 | 0.08 | 1.04 | 1.04 | 94 | 1006.8 |
| 20260505221919 | 16 | 288 | 6.4 | 17.7 | 0.10 | 1.04 | 1.04 | 94 | 1006.9 |
| 20260505221545 | 16 | 288 | 6.4 | 17.7 | 0.10 | 1.04 | 1.04 | 94 | 1006.4 |
| 20260505221353 | 16 | 289 | 6.4 | 16.1 | 0.10 | 1.04 | 1.04 | 94 | 1007.0 |
| 20260505220828 | 16 | 290 | 6.4 | 14.5 | 0.08 | 1.02 | 1.02 | 94 | 1007.1 |
| 20260505220259 | 16 | 290 | 4.8 | 14.5 | 0.08 | 1.02 | 1.02 | 94 | 1007.1 |
| 20260505220039 | 16 | 290 | 4.8 | 14.5 | 0.08 | 1.02 | 1.02 | 94 | 1006.6 |
| 20260505215733 | 16 | 292 | 4.8 | 14.5 | 0.08 | 1.02 | 1.02 | 94 | 1007.2 |
| 20260505215210 | 16 | 293 | 4.8 | 14.5 | 0.08 | 1.02 | 1.02 | 94 | 1007.2 |
| 20260505214642 | 16 | 290 | 6.4 | 16.1 | 0.08 | 1.02 | 1.02 | 94 | 1007.2 |
| 20260505214507 | 16 | 292 | 4.8 | 16.1 | 0.08 | 1.02 | 1.02 | 94 | 1006.6 |
| 20260505214115 | 16 | 291 | 6.4 | 16.1 | 0.05 | 0.99 | 0.99 | 94 | 1007.2 |
| 20260505213549 | 16 | 288 | 4.8 | 12.9 | 0.05 | 0.99 | 0.99 | 94 | 1007.2 |
| 20260505213022 | 16 | 288 | 6.4 | 19.3 | 0.05 | 0.97 | 0.97 | 94 | 1007.2 |
| 20260505213008 | 16 | 288 | 1.6 | 19.3 | 0.05 | 0.97 | 0.97 | 94 | 1006.7 |
| 20260505212507 | 16 | 288 | 6.4 | 19.3 | 0.05 | 0.97 | 0.97 | 94 | 1007.2 |
| 20260505211949 | 16 | 286 | 4.8 | 14.5 | 0.03 | 0.94 | 0.97 | 94 | 1007.2 |
| 20260505211532 | 16 | 286 | 6.4 | 14.5 | 0.03 | 0.94 | 0.94 | 94 | 1006.6 |
| 20260505211453 | 16 | 286 | 4.8 | 14.5 | 0.03 | 0.94 | 0.94 | 94 | 1007.3 |
| 20260505210925 | 16 | 288 | 4.8 | 14.5 | 0.03 | 0.94 | 0.94 | 94 | 1007.3 |
| 20260505210356 | 16 | 286 | 4.8 | 14.5 | 0.05 | 0.94 | 0.94 | 94 | 1007.3 |
| 20260505210044 | 16 | 286 | 3.2 | 16.1 | 0.05 | 0.94 | 0.94 | 94 | 1006.7 |
| 20260505205856 | 16 | 287 | 4.8 | 16.1 | 0.08 | 0.94 | 0.94 | 94 | 1007.3 |
| 20260505205329 | 16 | 287 | 6.4 | 14.5 | 0.08 | 0.94 | 0.94 | 94 | 1007.2 |
| 20260505204803 | 16 | 286 | 6.4 | 17.7 | 0.10 | 0.94 | 0.94 | 93 | 1007.2 |
| 20260505204512 | 16 | 286 | 8.0 | 17.7 | 0.10 | 0.94 | 0.94 | 93 | 1006.7 |
| 20260505204235 | 16 | 287 | 3.2 | 12.9 | 0.13 | 0.94 | 0.94 | 93 | 1007.3 |
| 20260505203735 | 16 | 290 | 3.2 | 12.9 | 0.15 | 0.94 | 0.94 | 93 | 1007.3 |
| 20260505203207 | 16 | 273 | 3.2 | 12.9 | 0.28 | 0.91 | 0.91 | 93 | 1007.3 |
| 20260505203100 | 16 | 291 | 1.6 | 12.9 | 0.30 | 0.91 | 0.91 | 93 | 1006.8 |
| 20260505202908 | 16 | 290 | 4.8 | 14.5 | 0.46 | 0.91 | 0.91 | 93 | 1007.3 |
| 20260505202115 | 16 | 290 | 3.2 | 14.5 | 0.51 | 0.91 | 0.91 | 93 | 1007.3 |
| 20260505201550 | 16 | 291 | 3.2 | 6.4 | 0.56 | 0.91 | 0.91 | 93 | 1007.4 |
| 20260505201519 | 16 | 273 | 3.2 | 6.4 | 0.56 | 0.91 | 0.91 | 93 | 1006.8 |
| 20260505201247 | 16 | 290 | 3.2 | 8.0 | 0.56 | 0.91 | 0.91 | 93 | 1007.4 |
| 20260505200454 | 16 | 290 | 3.2 | 9.7 | 0.53 | 0.89 | 0.89 | 92 | 1007.5 |
| 20260505200039 | 16 | 273 | 3.2 | 14.5 | 0.53 | 0.89 | 0.89 | 92 | 1006.8 |
| 20260505195953 | 16 | 291 | 3.2 | 14.5 | 0.51 | 0.86 | 0.89 | 92 | 1007.5 |
| 20260505195448 | 16 | 288 | 3.2 | 14.5 | 0.51 | 0.86 | 0.86 | 91 | 1007.5 |
| 20260505195209 | 16 | 288 | 3.2 | 14.5 | 0.48 | 0.84 | 0.84 | 91 | 1007.7 |
| 20260505194548 | 16 | 288 | 4.8 | 16.1 | 0.48 | 0.84 | 0.84 | 91 | 1007.2 |
| 20260505194421 | 16 | 288 | 6.4 | 25.7 | 0.46 | 0.81 | 0.81 | 90 | 1007.8 |
| 20260505193917 | 16 | 290 | 9.7 | 25.7 | 0.43 | 0.79 | 0.81 | 89 | 1007.9 |
| 20260505193352 | 17 | 290 | 8.0 | 22.5 | 0.33 | 0.69 | 0.69 | 87 | 1008.1 |
| 20260505193106 | 17 | 289 | 6.4 | 22.5 | 0.25 | 0.61 | 0.61 | 85 | 1007.4 |
| 20260505192822 | 17 | 273 | 9.7 | 24.1 | 0.15 | 0.51 | 0.51 | 83 | 1007.9 |
| 20260505192323 | 18 | 287 | 8.0 | 24.1 | 0.08 | 0.43 | 0.43 | 79 | 1007.7 |
| 20260505191755 | 19 | 287 | 6.4 | 20.9 | 0.00 | 0.36 | 0.36 | 74 | 1007.6 |
| 20260505191522 | 19 | 213 | 3.2 | 19.3 | 0.00 | 0.36 | 0.36 | 72 | 1006.8 |
| 20260505191253 | 19 | 95 | 6.4 | 20.9 | 0.00 | 0.36 | 0.36 | 71 | 1007.2 |
| 20260505191011 | 20 | 75 | 6.4 | 16.1 | 0.00 | 0.36 | 0.36 | 71 | 1007.2 |
| 20260505190245 | 20 | 158 | 8.0 | 19.3 | 0.00 | 0.36 | 0.36 | 70 | 1007.4 |
| 20260505190046 | 19 | 172 | 4.8 | 19.3 | 0.00 | 0.36 | 0.36 | 70 | 1006.7 |
| 20260505185744 | 20 | 145 | 9.7 | 19.3 | 0.00 | 0.36 | 0.36 | 70 | 1007.4 |
| 20260505185214 | 20 | 123 | 9.7 | 17.7 | 0.00 | 0.36 | 0.36 | 70 | 1007.4 |
| 20260505184714 | 20 | 121 | 8.0 | 19.3 | 0.00 | 0.36 | 0.36 | 69 | 1007.4 |
| 20260505184533 | 19 | 84 | 8.0 | 19.3 | 0.00 | 0.36 | 0.36 | 70 | 1006.9 |
| 20260505184148 | 20 | 100 | 8.0 | 17.7 | 0.00 | 0.36 | 0.36 | 69 | 1007.6 |
| 20260505184106 | 19 | 82 | 8.0 | 20.9 | 0.00 | 0.36 | 0.36 | 69 | 1007.5 |
| 20260505183117 | 19 | 156 | 9.7 | 20.9 | 0.00 | 0.36 | 0.36 | 69 | 1007.6 |
| 20260505183047 | 19 | 155 | 8.0 | 14.5 | 0.00 | 0.36 | 0.36 | 69 | 1007.0 |
| 20260505182551 | 19 | 114 | 9.7 | 20.9 | 0.00 | 0.36 | 0.36 | 69 | 1007.7 |
| 20260505182245 | 19 | 151 | 9.7 | 25.7 | 0.00 | 0.36 | 0.36 | 69 | 1007.7 |
| 20260505181521 | 19 | 100 | 9.7 | 25.7 | 0.00 | 0.36 | 0.36 | 69 | 1007.3 |
| 20260505181458 | 19 | 123 | 9.7 | 30.6 | 0.00 | 0.36 | 0.36 | 69 | 1007.8 |
| 20260505180956 | 19 | 123 | 9.7 | 30.6 | 0.00 | 0.36 | 0.36 | 69 | 1007.9 |
| 20260505180427 | 19 | 73 | 8.0 | 17.7 | 0.00 | 0.36 | 0.36 | 68 | 1008.0 |
| 20260505180005 | 19 | 109 | 6.4 | 17.7 | 0.00 | 0.36 | 0.36 | 69 | 1007.4 |
| 20260505175927 | 19 | 97 | 8.0 | 17.7 | 0.00 | 0.36 | 0.36 | 69 | 1008.0 |
| 20260505175357 | 19 | 120 | 8.0 | 24.1 | 0.00 | 0.36 | 0.36 | 69 | 1008.0 |
| 20260505174834 | 19 | 132 | 8.0 | 16.1 | 0.00 | 0.36 | 0.36 | 69 | 1008.1 |
| 20260505174541 | 18 | 138 | 4.8 | 16.1 | 0.00 | 0.36 | 0.36 | 68 | 1007.6 |
| 20260505174303 | 19 | 127 | 9.7 | 19.3 | 0.00 | 0.36 | 0.36 | 69 | 1008.1 |
| 20260505173803 | 19 | 134 | 8.0 | 17.7 | 0.00 | 0.36 | 0.36 | 69 | 1008.2 |
| 20260505173511 | 18 | 122 | 6.4 | 19.3 | 0.00 | 0.36 | 0.36 | 69 | 1008.2 |
| 20260505173012 | 18 | 157 | 4.8 | 25.7 | 0.00 | 0.36 | 0.36 | 69 | 1007.7 |
| 20260505172747 | 18 | 115 | 6.4 | 25.7 | 0.00 | 0.36 | 0.36 | 70 | 1008.3 |
| 20260505172248 | 18 | 148 | 8.0 | 25.7 | 0.00 | 0.36 | 0.36 | 68 | 1008.3 |
| 20260505171723 | 18 | 99 | 6.4 | 16.1 | 0.00 | 0.36 | 0.36 | 68 | 1008.3 |
| 20260505171519 | 18 | 128 | 8.0 | 16.1 | 0.00 | 0.36 | 0.36 | 69 | 1007.7 |
| 20260505171225 | 18 | 121 | 6.4 | 17.7 | 0.00 | 0.36 | 0.36 | 69 | 1008.3 |
| 20260505170708 | 18 | 326 | 6.4 | 17.7 | 0.00 | 0.36 | 0.36 | 68 | 1008.4 |
| 20260505170218 | 18 | 292 | 8.0 | 22.5 | 0.00 | 0.36 | 0.36 | 68 | 1008.4 |
| 20260505170033 | 18 | 288 | 6.4 | 22.5 | 0.00 | 0.36 | 0.36 | 68 | 1007.8 |
| 20260505165641 | 18 | 289 | 9.7 | 22.5 | 0.00 | 0.36 | 0.36 | 68 | 1008.5 |
| 20260505165111 | 18 | 292 | 9.7 | 22.5 | 0.00 | 0.36 | 0.36 | 68 | 1008.4 |
| 20260505164545 | 18 | 296 | 8.0 | 22.5 | 0.00 | 0.36 | 0.36 | 69 | 1008.4 |
| 20260505164530 | 18 | 295 | 9.7 | 22.5 | 0.00 | 0.36 | 0.36 | 69 | 1007.8 |
| 20260505164040 | 18 | 312 | 8.0 | 20.9 | 0.00 | 0.36 | 0.36 | 68 | 1008.3 |
| 20260505163539 | 18 | 299 | 8.0 | 17.7 | 0.00 | 0.36 | 0.36 | 69 | 1008.4 |
| 20260505163030 | 18 | 114 | 8.0 | 17.7 | 0.00 | 0.36 | 0.36 | 69 | 1007.8 |
| 20260505163011 | 18 | 111 | 8.0 | 17.7 | 0.00 | 0.36 | 0.36 | 69 | 1008.4 |
| 20260505162512 | 18 | 308 | 8.0 | 19.3 | 0.00 | 0.36 | 0.36 | 70 | 1008.4 |
| 20260505161941 | 18 | 295 | 9.7 | 24.1 | 0.00 | 0.36 | 0.36 | 69 | 1008.4 |
| 20260505161535 | 18 | 285 | 11.3 | 24.1 | 0.00 | 0.36 | 0.36 | 70 | 1007.8 |
| 20260505161439 | 18 | 286 | 9.7 | 24.1 | 0.00 | 0.36 | 0.36 | 70 | 1008.3 |
| 20260505160915 | 18 | 286 | 9.7 | 17.7 | 0.00 | 0.36 | 0.36 | 70 | 1008.4 |
| 20260505160347 | 18 | 286 | 8.0 | 20.9 | 0.00 | 0.36 | 0.36 | 70 | 1008.3 |
| 20260505153242 | 18 | 120 | 8.0 | 19.3 | 0.00 | 0.36 | 0.36 | 73 | 1008.2 |
| 20260505153101 | 18 | 136 | 8.0 | 19.3 | 0.00 | 0.36 | 0.36 | 71 | 1007.6 |
| 20260505152730 | 18 | 134 | 8.0 | 19.3 | 0.00 | 0.36 | 0.36 | 73 | 1008.2 |
| 20260505152231 | 18 | 111 | 9.7 | 19.3 | 0.00 | 0.36 | 0.36 | 73 | 1008.2 |
| 20260505151705 | 18 | 128 | 8.0 | 19.3 | 0.00 | 0.36 | 0.36 | 75 | 1008.1 |
| 20260505151504 | 18 | 103 | 6.4 | 17.7 | 0.00 | 0.36 | 0.36 | 75 | 1007.6 |
| 20260505151204 | 18 | 91 | 9.7 | 20.9 | 0.00 | 0.36 | 0.36 | 76 | 1008.2 |
| 20260505150708 | 18 | 143 | 8.0 | 20.9 | 0.00 | 0.36 | 0.36 | 76 | 1008.2 |
| 20260505150148 | 18 | 75 | 8.0 | 19.3 | 0.00 | 0.36 | 0.36 | 79 | 1008.3 |
| 20260505140452 | 16 | 156 | 4.8 | 16.1 | 0.00 | 0.36 | 0.36 | 91 | 1007.9 |
| 20260505124817 | 14 | 273 | 6.4 | 19.3 | 0.00 | 0.36 | 0.36 | 94 | 1007.5 |
| 20260505124608 | 14 | 290 | 6.4 | 19.3 | 0.00 | 0.36 | 0.36 | 94 | 1006.8 |
| 20260505124314 | 15 | 273 | 4.8 | 9.7 | 0.00 | 0.36 | 0.36 | 94 | 1007.5 |
| 20260505123747 | 14 | 273 | 4.8 | 14.5 | 0.03 | 0.36 | 0.36 | 94 | 1007.7 |
| 20260505123225 | 14 | 273 | 4.8 | 14.5 | 0.03 | 0.36 | 0.36 | 94 | 1007.9 |
| 20260505123045 | 14 | 273 | 3.2 | 9.7 | 0.03 | 0.36 | 0.36 | 94 | 1007.5 |
| 20260505122705 | 14 | 288 | 4.8 | 11.3 | 0.05 | 0.36 | 0.36 | 94 | 1008.1 |
| 20260505122207 | 14 | 286 | 4.8 | 12.9 | 0.05 | 0.36 | 0.36 | 94 | 1007.9 |
| 20260505121653 | 14 | 287 | 4.8 | 14.5 | 0.05 | 0.36 | 0.36 | 94 | 1008.0 |
| 20260505121527 | 14 | 288 | 1.6 | 14.5 | 0.05 | 0.36 | 0.36 | 94 | 1007.5 |
| 20260505121417 | 14 | 273 | 4.8 | 14.5 | 0.05 | 0.36 | 0.36 | 94 | 1008.2 |
| 20260505120657 | 14 | 273 | 3.2 | 14.5 | 0.05 | 0.36 | 0.36 | 94 | 1008.2 |
| 20260505120142 | 14 | 273 | 4.8 | 14.5 | 0.05 | 0.36 | 0.36 | 94 | 1008.2 |
| 20260505120125 | 14 | 289 | 4.8 | 14.5 | 0.05 | 0.36 | 0.36 | 94 | 1008.2 |
| 20260505120041 | 13 | 273 | 3.2 | 14.5 | 0.05 | 0.36 | 0.36 | 94 | 1007.7 |
| 20260505115137 | 14 | 291 | 4.8 | 14.5 | 0.05 | 0.36 | 0.36 | 94 | 1008.2 |
| 20260505114638 | 14 | 288 | 3.2 | 14.5 | 0.05 | 0.36 | 0.36 | 94 | 1008.1 |
| 20260505114507 | 13 | 288 | 4.8 | 14.5 | 0.05 | 0.36 | 0.36 | 94 | 1007.6 |
| 20260505114114 | 14 | 287 | 3.2 | 9.7 | 0.03 | 0.33 | 0.33 | 94 | 1007.9 |
| 20260505113556 | 14 | 288 | 3.2 | 6.4 | 0.03 | 0.33 | 0.33 | 94 | 1007.8 |
| 20260505113054 | 13 | 287 | 3.2 | 12.9 | 0.03 | 0.33 | 0.33 | 94 | 1007.7 |
| 20260505113019 | 13 | 287 | 1.6 | 8.0 | 0.03 | 0.33 | 0.33 | 94 | 1007.1 |
| 20260505112552 | 13 | 288 | 3.2 | 12.9 | 0.03 | 0.30 | 0.30 | 93 | 1007.5 |
| 20260505112317 | 13 | 289 | 4.8 | 12.9 | 0.05 | 0.30 | 0.30 | 93 | 1007.5 |
| 20260505111752 | 13 | 289 | 4.8 | 12.9 | 0.05 | 0.30 | 0.30 | 93 | 1007.4 |
| 20260505111509 | 13 | 289 | 4.8 | 12.9 | 0.05 | 0.30 | 0.30 | 93 | 1007.0 |
| 20260505111021 | 13 | 287 | 3.2 | 11.3 | 0.13 | 0.30 | 0.30 | 93 | 1007.1 |
| 20260505110526 | 13 | 288 | 3.2 | 8.0 | 0.15 | 0.30 | 0.30 | 93 | 1006.8 |
| 20260505101915 | 13 | 273 | 1.6 | 8.0 | 0.25 | 0.25 | 0.25 | 91 | 1008.1 |
| 20260505101537 | 13 | 273 | 1.6 | 8.0 | 0.25 | 0.25 | 0.25 | 91 | 1007.6 |
| 20260505101412 | 14 | 273 | 1.6 | 8.0 | 0.25 | 0.25 | 0.25 | 90 | 1008.2 |
| 20260505100909 | 14 | 273 | 3.2 | 9.7 | 0.18 | 0.18 | 0.18 | 90 | 1008.4 |
| 20260505100630 | 14 | 273 | 4.8 | 19.3 | 0.15 | 0.15 | 0.15 | 90 | 1008.5 |
| 20260505100023 | 14 | 273 | 3.2 | 19.3 | 0.13 | 0.13 | 0.13 | 89 | 1008.1 |
| 20260505095841 | 14 | 273 | 6.4 | 19.3 | 0.10 | 0.10 | 0.10 | 89 | 1008.6 |
| 20260505095337 | 14 | 273 | 6.4 | 19.3 | 0.08 | 0.08 | 0.08 | 88 | 1008.4 |
| 20260505094811 | 15 | 273 | 3.2 | 19.3 | 0.05 | 0.05 | 0.05 | 87 | 1008.4 |
| 20260505094636 | 15 | 273 | 4.8 | 19.3 | 0.05 | 0.05 | 0.05 | 87 | 1007.8 |
| 20260505094310 | 15 | 273 | 1.6 | 12.9 | 0.05 | 0.05 | 0.05 | 87 | 1008.3 |
| 20260505093741 | 15 | 273 | 3.2 | 9.7 | 0.03 | 0.03 | 0.03 | 86 | 1008.3 |
| 20260505093216 | 15 | 273 | 3.2 | 12.9 | 0.03 | 0.03 | 0.03 | 84 | 1008.2 |
| 20260505093100 | 15 | 273 | 1.6 | 12.9 | 0.03 | 0.03 | 0.03 | 83 | 1007.7 |
| 20260505092649 | 16 | 273 | 3.2 | 12.9 | 0.03 | 0.03 | 0.03 | 82 | 1008.1 |
| 20260505092143 | 16 | 273 | 3.2 | 6.4 | 0.03 | 0.03 | 0.03 | 78 | 1007.8 |
| 20260505091644 | 17 | 289 | 1.6 | 4.8 | 0.00 | 0.00 | 0.00 | 75 | 1007.6 |
| 20260505091532 | 17 | 289 | 1.6 | 4.8 | 0.00 | 0.00 | 0.00 | 74 | 1007.2 |
| 20260505091116 | 17 | 287 | 4.8 | 16.1 | 0.00 | 0.00 | 0.00 | 70 | 1007.3 |
| 20260505090557 | 17 | 288 | 4.8 | 16.1 | 0.00 | 0.00 | 0.00 | 68 | 1007.3 |
| 20260505090309 | 18 | 287 | 3.2 | 6.4 | 0.00 | 0.00 | 0.00 | 63 | 1007.5 |
| 20260505090034 | 17 | 287 | 3.2 | 6.4 | 0.00 | 0.00 | 0.00 | 63 | 1007.1 |
| 20260505085804 | 18 | 287 | 1.6 | 4.8 | 0.00 | 0.00 | 0.00 | 63 | 1007.2 |
| 20260505085041 | 18 | 287 | 1.6 | 4.8 | 0.00 | 0.00 | 0.00 | 62 | 1006.9 |
| 20260505084618 | 18 | 287 | 1.6 | 6.4 | 0.00 | 0.00 | 0.00 | 62 | 1006.5 |
| 20260505084537 | 18 | 287 | 1.6 | 6.4 | 0.00 | 0.00 | 0.00 | 62 | 1006.9 |
| 20260505084011 | 18 | 286 | 1.6 | 6.4 | 0.00 | 0.00 | 0.00 | 61 | 1006.9 |
| 20260505083927 | 18 | 286 | 3.2 | 6.4 | 0.00 | 0.00 | 0.00 | 61 | 1006.8 |
| 20260505083112 | 18 | 287 | 1.6 | 6.4 | 0.00 | 0.00 | 0.00 | 61 | 1006.3 |
| 20260505082920 | 18 | 287 | 3.2 | 4.8 | 0.00 | 0.00 | 0.00 | 61 | 1006.7 |
| 20260505082353 | 18 | 286 | 3.2 | 8.0 | 0.00 | 0.00 | 0.00 | 60 | 1006.5 |
| 20260505081852 | 18 | 288 | 3.2 | 8.0 | 0.00 | 0.00 | 0.00 | 60 | 1006.3 |
| 20260505081602 | 18 | 288 | 3.2 | 8.0 | 0.00 | 0.00 | 0.00 | 59 | 1005.8 |
| 20260505081322 | 18 | 287 | 3.2 | 11.3 | 0.00 | 0.00 | 0.00 | 59 | 1006.2 |
| 20260505080820 | 18 | 288 | 4.8 | 11.3 | 0.00 | 0.00 | 0.00 | 59 | 1006.2 |
| 20260505080542 | 18 | 288 | 4.8 | 16.1 | 0.00 | 0.00 | 0.00 | 59 | 1006.2 |
| 20260505080011 | 18 | 288 | 3.2 | 16.1 | 0.00 | 0.00 | 0.00 | 58 | 1005.7 |
| 20260505075816 | 19 | 288 | 8.0 | 20.9 | 0.00 | 0.00 | 0.00 | 58 | 1006.2 |
| 20260505075245 | 19 | 287 | 8.0 | 20.9 | 0.00 | 0.00 | 0.00 | 58 | 1006.3 |
| 20260505074743 | 19 | 286 | 6.4 | 16.1 | 0.00 | 0.00 | 0.00 | 58 | 1006.3 |
| 20260505074628 | 18 | 288 | 6.4 | 16.1 | 0.00 | 0.00 | 0.00 | 58 | 1005.9 |
| 20260505074220 | 19 | 286 | 6.4 | 14.5 | 0.00 | 0.00 | 0.00 | 58 | 1006.3 |
| 20260505073718 | 19 | 288 | 4.8 | 14.5 | 0.00 | 0.00 | 0.00 | 58 | 1006.3 |
| 20260505073217 | 19 | 287 | 4.8 | 12.9 | 0.00 | 0.00 | 0.00 | 57 | 1006.2 |
| 20260505073038 | 19 | 286 | 3.2 | 8.0 | 0.00 | 0.00 | 0.00 | 57 | 1005.7 |
| 20260505072926 | 19 | 286 | 4.8 | 16.1 | 0.00 | 0.00 | 0.00 | 57 | 1006.1 |
| 20260505072207 | 19 | 287 | 6.4 | 20.9 | 0.00 | 0.00 | 0.00 | 57 | 1006.0 |
| 20260505071640 | 19 | 287 | 8.0 | 20.9 | 0.00 | 0.00 | 0.00 | 56 | 1005.9 |
| 20260505071549 | 19 | 287 | 4.8 | 20.9 | 0.00 | 0.00 | 0.00 | 56 | 1005.4 |
| 20260505071400 | 19 | 287 | 8.0 | 20.9 | 0.00 | 0.00 | 0.00 | 57 | 1005.9 |
| 20260505070608 | 19 | 286 | 6.4 | 20.9 | 0.00 | 0.00 | 0.00 | 57 | 1006.0 |
| 20260505070304 | 19 | 286 | 8.0 | 20.9 | 0.00 | 0.00 | 0.00 | 57 | 1006.0 |
| 20260505070010 | 18 | 286 | 6.4 | 20.9 | 0.00 | 0.00 | 0.00 | 58 | 1005.6 |
| 20260505065511 | 19 | 287 | 6.4 | 20.9 | 0.00 | 0.00 | 0.00 | 58 | 1006.0 |
| 20260505065241 | 18 | 288 | 4.8 | 16.1 | 0.00 | 0.00 | 0.00 | 59 | 1005.8 |
| 20260505064725 | 18 | 286 | 6.4 | 16.1 | 0.00 | 0.00 | 0.00 | 59 | 1005.8 |
| 20260505064523 | 18 | 286 | 3.2 | 16.1 | 0.00 | 0.00 | 0.00 | 59 | 1005.4 |
| 20260505064006 | 19 | 286 | 6.4 | 16.1 | 0.00 | 0.00 | 0.00 | 59 | 1005.7 |
| 20260505063501 | 19 | 287 | 6.4 | 14.5 | 0.00 | 0.00 | 0.00 | 59 | 1005.7 |
| 20260505063016 | 18 | 287 | 4.8 | 14.5 | 0.00 | 0.00 | 0.00 | 58 | 1005.2 |
| 20260505062958 | 19 | 288 | 6.4 | 14.5 | 0.00 | 0.00 | 0.00 | 58 | 1005.7 |
| 20260505062458 | 19 | 286 | 4.8 | 16.1 | 0.00 | 0.00 | 0.00 | 58 | 1005.7 |
| 20260505061943 | 19 | 286 | 6.4 | 16.1 | 0.00 | 0.00 | 0.00 | 58 | 1005.7 |
| 20260505061708 | 19 | 286 | 6.4 | 20.9 | 0.00 | 0.00 | 0.00 | 57 | 1005.7 |
| 20260505061529 | 19 | 286 | 4.8 | 16.1 | 0.00 | 0.00 | 0.00 | 58 | 1005.3 |
| 20260505061204 | 19 | 288 | 8.0 | 20.9 | 0.00 | 0.00 | 0.00 | 57 | 1005.7 |
| 20260505060441 | 20 | 286 | 8.0 | 17.7 | 0.00 | 0.00 | 0.00 | 56 | 1005.6 |
| 20260505060047 | 20 | 297 | 6.4 | 16.1 | 0.00 | 0.00 | 0.00 | 55 | 1005.1 |
| 20260505055915 | 20 | 286 | 8.0 | 16.1 | 0.00 | 0.00 | 0.00 | 55 | 1005.5 |
| 20260505055610 | 20 | 287 | 8.0 | 16.1 | 0.00 | 0.00 | 0.00 | 55 | 1005.4 |
| 20260505055103 | 20 | 164 | 9.7 | 19.3 | 0.00 | 0.00 | 0.00 | 55 | 1005.2 |
| 20260505054555 | 20 | 124 | 9.7 | 22.5 | 0.00 | 0.00 | 0.00 | 55 | 1005.1 |
| 20260505054506 | 20 | 85 | 4.8 | 19.3 | 0.00 | 0.00 | 0.00 | 55 | 1004.7 |
| 20260505053836 | 20 | 134 | 9.7 | 27.4 | 0.00 | 0.00 | 0.00 | 54 | 1005.2 |
| 20260505053310 | 20 | 293 | 9.7 | 27.4 | 0.00 | 0.00 | 0.00 | 54 | 1005.0 |
| 20260505053025 | 20 | 288 | 8.0 | 27.4 | 0.00 | 0.00 | 0.00 | 54 | 1004.7 |
| 20260505052754 | 20 | 287 | 9.7 | 30.6 | 0.00 | 0.00 | 0.00 | 54 | 1005.0 |
| 20260505052253 | 20 | 118 | 11.3 | 30.6 | 0.00 | 0.00 | 0.00 | 53 | 1004.9 |
| 20260505051753 | 20 | 167 | 11.3 | 30.6 | 0.00 | 0.00 | 0.00 | 53 | 1004.9 |
| 20260505051534 | 20 | 113 | 8.0 | 30.6 | 0.00 | 0.00 | 0.00 | 53 | 1004.5 |
| 20260505051254 | 20 | 130 | 11.3 | 30.6 | 0.00 | 0.00 | 0.00 | 53 | 1004.9 |
| 20260505050726 | 20 | 122 | 12.9 | 30.6 | 0.00 | 0.00 | 0.00 | 53 | 1004.9 |
| 20260505050224 | 20 | 297 | 11.3 | 35.4 | 0.00 | 0.00 | 0.00 | 53 | 1004.7 |
| 20260505041605 | 20 | 286 | 6.4 | 16.1 | 0.00 | 0.00 | 0.00 | 57 | 1005.2 |
| 20260505041524 | 20 | 288 | 8.0 | 16.1 | 0.00 | 0.00 | 0.00 | 56 | 1005.6 |
| 20260505040957 | 20 | 286 | 8.0 | 17.7 | 0.00 | 0.00 | 0.00 | 57 | 1005.6 |
| 20260505040429 | 20 | 287 | 8.0 | 17.7 | 0.00 | 0.00 | 0.00 | 57 | 1005.7 |
| 20260505040043 | 20 | 286 | 8.0 | 17.7 | 0.00 | 0.00 | 0.00 | 57 | 1005.4 |
| 20260505035929 | 20 | 286 | 6.4 | 17.7 | 0.00 | 0.00 | 0.00 | 57 | 1005.7 |
| 20260505035429 | 20 | 287 | 6.4 | 16.1 | 0.00 | 0.00 | 0.00 | 58 | 1005.8 |
| 20260505034927 | 20 | 285 | 6.4 | 17.7 | 0.00 | 0.00 | 0.00 | 58 | 1005.8 |
| 20260505034654 | 20 | 286 | 6.4 | 19.3 | 0.00 | 0.00 | 0.00 | 58 | 1005.4 |
| 20260505034641 | 20 | 286 | 8.0 | 19.3 | 0.00 | 0.00 | 0.00 | 58 | 1005.8 |
| 20260505033919 | 20 | 285 | 6.4 | 19.3 | 0.00 | 0.00 | 0.00 | 58 | 1005.7 |
| 20260505033417 | 20 | 286 | 6.4 | 16.1 | 0.00 | 0.00 | 0.00 | 58 | 1005.7 |
| 20260505033106 | 20 | 288 | 4.8 | 14.5 | 0.00 | 0.00 | 0.00 | 58 | 1005.5 |
| 20260505032922 | 20 | 286 | 6.4 | 14.5 | 0.00 | 0.00 | 0.00 | 58 | 1005.8 |
| 20260505032357 | 20 | 286 | 6.4 | 24.1 | 0.00 | 0.00 | 0.00 | 58 | 1005.8 |
| 20260505031836 | 20 | 285 | 6.4 | 17.7 | 0.00 | 0.00 | 0.00 | 58 | 1005.7 |
| 20260505031525 | 20 | 286 | 6.4 | 17.7 | 0.00 | 0.00 | 0.00 | 58 | 1005.4 |
| 20260505031336 | 20 | 287 | 4.8 | 17.7 | 0.00 | 0.00 | 0.00 | 58 | 1005.7 |
| 20260505030821 | 20 | 287 | 4.8 | 14.5 | 0.00 | 0.00 | 0.00 | 58 | 1005.7 |
| 20260505030256 | 20 | 286 | 6.4 | 16.1 | 0.00 | 0.00 | 0.00 | 58 | 1005.7 |
| 20260505030059 | 20 | 286 | 4.8 | 16.1 | 0.00 | 0.00 | 0.00 | 58 | 1005.4 |
| 20260505025759 | 20 | 288 | 6.4 | 14.5 | 0.00 | 0.00 | 0.00 | 58 | 1005.6 |
| 20260505025248 | 20 | 286 | 6.4 | 16.1 | 0.00 | 0.00 | 0.00 | 57 | 1005.5 |
| 20260505024746 | 20 | 288 | 6.4 | 19.3 | 0.00 | 0.00 | 0.00 | 57 | 1005.5 |
| 20260505024510 | 20 | 288 | 4.8 | 19.3 | 0.00 | 0.00 | 0.00 | 57 | 1005.1 |
| 20260505024245 | 21 | 286 | 6.4 | 20.9 | 0.00 | 0.00 | 0.00 | 57 | 1005.4 |
| 20260505023744 | 21 | 290 | 6.4 | 20.9 | 0.00 | 0.00 | 0.00 | 57 | 1005.3 |
| 20260505023244 | 21 | 286 | 6.4 | 14.5 | 0.00 | 0.00 | 0.00 | 56 | 1005.2 |
| 20260505023041 | 20 | 287 | 4.8 | 14.5 | 0.00 | 0.00 | 0.00 | 56 | 1004.9 |
| 20260505022740 | 21 | 74 | 6.4 | 17.7 | 0.00 | 0.00 | 0.00 | 56 | 1005.2 |
| 20260505022241 | 21 | 115 | 6.4 | 17.7 | 0.00 | 0.00 | 0.00 | 56 | 1005.1 |
| 20260505021942 | 21 | 70 | 6.4 | 16.1 | 0.00 | 0.00 | 0.00 | 56 | 1005.0 |
| 20260505021637 | 21 | 89 | 4.8 | 16.1 | 0.00 | 0.00 | 0.00 | 56 | 1004.7 |
| 20260505021228 | 21 | 116 | 6.4 | 16.1 | 0.00 | 0.00 | 0.00 | 56 | 1005.0 |
| 20260505020704 | 21 | 103 | 6.4 | 17.7 | 0.00 | 0.00 | 0.00 | 56 | 1004.9 |
| 20260505020142 | 21 | 63 | 6.4 | 17.7 | 0.00 | 0.00 | 0.00 | 55 | 1004.7 |
| 20260505020005 | 21 | 53 | 4.8 | 17.7 | 0.00 | 0.00 | 0.00 | 55 | 1004.4 |
| 20260505015620 | 21 | 88 | 6.4 | 14.5 | 0.00 | 0.00 | 0.00 | 55 | 1004.7 |
| 20260505015100 | 21 | 78 | 4.8 | 14.5 | 0.00 | 0.00 | 0.00 | 55 | 1004.6 |
| 20260505014544 | 21 | 107 | 6.4 | 16.1 | 0.00 | 0.00 | 0.00 | 54 | 1004.6 |
| 20260505014522 | 21 | 96 | 4.8 | 14.5 | 0.00 | 0.00 | 0.00 | 54 | 1004.4 |
| 20260505014031 | 21 | 84 | 4.8 | 16.1 | 0.00 | 0.00 | 0.00 | 54 | 1004.6 |
| 20260505013751 | 21 | 59 | 6.4 | 12.9 | 0.00 | 0.00 | 0.00 | 54 | 1004.6 |
| 20260505013230 | 21 | 116 | 6.4 | 14.5 | 0.00 | 0.00 | 0.00 | 53 | 1004.5 |
| 20260505013042 | 21 | 109 | 4.8 | 14.5 | 0.00 | 0.00 | 0.00 | 53 | 1004.2 |
| 20260505012438 | 21 | 122 | 6.4 | 17.7 | 0.00 | 0.00 | 0.00 | 53 | 1004.5 |
| 20260505011912 | 21 | 81 | 4.8 | 12.9 | 0.00 | 0.00 | 0.00 | 52 | 1004.5 |
| 20260505011550 | 21 | 111 | 4.8 | 12.9 | 0.00 | 0.00 | 0.00 | 52 | 1004.1 |
| 20260505011407 | 22 | 122 | 6.4 | 12.9 | 0.00 | 0.00 | 0.00 | 52 | 1004.4 |
| 20260505010841 | 22 | 89 | 6.4 | 16.1 | 0.00 | 0.00 | 0.00 | 52 | 1004.4 |
| 20260505010321 | 22 | 134 | 6.4 | 16.1 | 0.00 | 0.00 | 0.00 | 51 | 1004.4 |
| 20260505010009 | 22 | 95 | 4.8 | 16.1 | 0.00 | 0.00 | 0.00 | 51 | 1004.1 |
| 20260505005823 | 22 | 84 | 6.4 | 16.1 | 0.00 | 0.00 | 0.00 | 51 | 1004.4 |
| 20260505005258 | 22 | 64 | 6.4 | 16.1 | 0.00 | 0.00 | 0.00 | 50 | 1004.4 |
| 20260505004735 | 22 | 137 | 6.4 | 14.5 | 0.00 | 0.00 | 0.00 | 50 | 1004.4 |
| 20260505004557 | 22 | 108 | 4.8 | 14.5 | 0.00 | 0.00 | 0.00 | 49 | 1004.1 |
| 20260505004209 | 22 | 120 | 6.4 | 19.3 | 0.00 | 0.00 | 0.00 | 50 | 1004.4 |
| 20260505003707 | 22 | 114 | 8.0 | 19.3 | 0.00 | 0.00 | 0.00 | 49 | 1004.3 |
| 20260505003426 | 22 | 94 | 6.4 | 16.1 | 0.00 | 0.00 | 0.00 | 49 | 1004.3 |
| 20260505003040 | 22 | 82 | 8.0 | 16.1 | 0.00 | 0.00 | 0.00 | 49 | 1004.1 |
| 20260505002641 | 22 | 61 | 6.4 | 16.1 | 0.00 | 0.00 | 0.00 | 48 | 1004.3 |
| 20260505002115 | 22 | 136 | 8.0 | 16.1 | 0.00 | 0.00 | 0.00 | 48 | 1004.4 |
| 20260505001733 | 23 | 66 | 8.0 | 17.7 | 0.00 | 0.00 | 0.00 | 47 | 1004.4 |
| 20260505001622 | 23 | 79 | 6.4 | 17.7 | 0.00 | 0.00 | 0.00 | 48 | 1004.4 |
| 20260505001541 | 22 | 76 | 6.4 | 16.1 | 0.00 | 0.00 | 0.00 | 48 | 1004.2 |
| 20260505000457 | 23 | 94 | 8.0 | 24.1 | 0.00 | 0.00 | 0.00 | 47 | 1004.5 |
| 20260504235929 | 23 | 131 | 8.0 | 24.1 | 0.00 | 0.00 | 0.00 | 47 | 1004.6 |